Regional Weather Roundup
Issued by NWS Wakefield, VA

Home | Current Version | Previous Version | Text Only | Print | Product List | Glossary Off
Versions: 1 2 3 4 5 6 7 8 9 10 11 12 13 14 15 16 17 18 19 20 21 22 23 24 25 26 27 28 29 30 31 32 33 34 35 36 37 38 39 40 41 42 43 44 45 46 47 48 49 50

000
ASUS41 KAKQ 172210
RWRAKQ

REGIONAL WEATHER ROUNDUP
NATIONAL WEATHER SERVICE WAKEFIELD VA
600 PM EDT WED SEP 17 2014

Note: "fair" indicates few or no clouds below 12,000 feet with no
significant weather and/or obstructions to visibility. * = Denotes
station may not report precipitation (e.g., rain,snow,etc.),
thunder or fog.

VAZ042-051-052>054-056-172300-
NORTHERN VIRGINIA

CITY           SKY/WX    TMP DP  RH WIND       PRES   REMARKS
WASH NATIONAL  PTSUNNY   77  48  35 N5        29.97S
DULLES         MOSUNNY   73  50  44 W5        29.97F
FORT BELVOIR   SUNNY     74  52  46 VRB6      29.97S
QUANTICO       MOSUNNY   75  49  39 NW9       29.97S
FREDERICKSBRG* PTSUNNY   75  53  46 E5        29.96S
STAFFORD*      SUNNY     74  53  48 CALM      30.00S
WARRENTON      MOSUNNY   72  59  63 CALM      29.97S
CULPEPER*      MOSUNNY   75  50  41 CALM      29.97F
MANASSAS*      PTSUNNY   73  52  46 CALM      29.97
LEESBURG*      SUNNY     73  52  46 CALM      29.98S
WINCHESTER     SUNNY     72  50  46 E8        29.97S
FRONT ROYAL*   CLEAR     72  54  53 E5        29.96S
LURAY*         PTCLDY    73  52  46 S3        29.96F
$$

VAZ048-049-060>072-079>083-172300-
CENTRAL AND SOUTH CENTRAL VIRGINIA...AND NORTH CENTRAL NORTH CAROLINA

CITY           SKY/WX    TMP DP  RH WIND       PRES   REMARKS
RICHMOND       PTSUNNY   75  56  51 E5        29.96R
CHESTERFIELD*  CLOUDY   N/A N/A N/A E6        29.97S
PETERSBURG*    PTSUNNY   74  57  55 SE3       29.96S
HANOVER        CLOUDY    74  62  66 MISG      29.97S
TAPPAHANNOCK*  SUNNY     73  53  49 E3        29.97S
CHARLOTTSVILLE MOSUNNY   74  52  46 S3        29.96F
ORANGE*        PTSUNNY   73  50  43 CALM      29.98S
LOUISA*        CLOUDY    73  55  53 CALM      29.96S
FARMVILLE*     CLOUDY    77  54  44 E3        29.94S
CREWE*         MOCLDY    73  58  59 CALM      29.95
FORT PICKETT*  CLOUDY    73  58  58 SE3       29.96S
LUNENBURG*     CLOUDY    75  63  66 CALM      29.96S
SOUTH HILL*    LGT RAIN  72  66  83 CALM      30.01R
LAWRENCEVILLE* MOCLDY    71  64  78 CALM      29.95S
ROANOKE RAPIDS CLEAR     72  63  73 NE3       29.94S
RALEIGH        MOSUNNY   76  63  64 NE9       29.92F
$$

VAZ088>098-172300-
SOUTHEAST VIRGINIA

CITY           SKY/WX    TMP DP  RH WIND       PRES   REMARKS
NORFOLK        PTSUNNY   72  57  59 NE9       29.95S
VIRGINIA BEACH PTSUNNY   71  57  61 NE9       29.94S
NORFOLK NAVAL  PTSUNNY   73  59  61 NE10      29.97R
WEST POINT*    CLOUDY    73  58  59 NE3       29.98R
NEWPORT NEWS   SUNNY     76  60  57 NE8       29.96S
LANGLEY AFB    PTSUNNY   73  60  65 E8        29.95S
FORT EUSTIS    SUNNY     73  55  51 E7        29.94S
WILLIAMSBURG*  MOSUNNY   75  63  64 CALM      29.97R
HR EXEC AP*    MOCLDY    72  59  64 NE9       29.97S
FRANKLIN*      SUNNY     73  59  60 NE6       29.95R
WAKEFIELD      PTSUNNY   73  60  63 CALM      29.96R
$$

VAZ020-022-025-037-045-172300-
WEST CENTRAL AND SOUTHWEST VIRGINIA

CITY           SKY/WX    TMP DP  RH WIND       PRES   REMARKS
STAUNTON*      SUNNY     71  49  46 S5        29.99F
HOT SPRINGS VA SUNNY     57  40  53 S3        30.07S
LYNCHBURG      MOSUNNY   72  56  57 CALM      29.98F
DANVILLE       MOSUNNY   75  60  59 E6        29.94F
SOUTH BOSTON*  NOT AVBL
MARTINSVILLE   SUNNY     74  60  61 N3        29.98S
ROANOKE        MOSUNNY   70  54  56 SE8       29.99F
BLACKSBURG     PTSUNNY   68  61  77 E8        30.01F
DUBLIN*        MOSUNNY   70  58  67 SE7       30.00F
MARION*        MOSUNNY   69  56  63 CALM      30.01F
HILLSVILLE*    CLOUDY    67  56  69 S5        30.00S
RICHLANDS*     CLEAR     71  60  68 NW3       29.99S
WISE*          PTSUNNY   68  54  60 N7        30.02S
ABINGDON*      PTSUNNY   74  58  58 NW7       29.97S
$$

MDZ021>025-VAZ099-100-172300-
SOUTHERN MARYLAND AND THE DELMARVA PENINSULA

CITY           SKY/WX    TMP DP  RH WIND       PRES   REMARKS
PATUXENT RIVER MOSUNNY   71  50  47 E5        29.97R
BAY BRIDGE APT   N/A     72  45  37 NW3       29.98R
LEONARDTOWN    SUNNY     72  50  46 CALM      29.99S
DOVER          MOSUNNY   69  50  49 E5        29.96S
GEORGETOWN     SUNNY     71  47  42 E8        29.98R
EASTON         SUNNY     73  48  40 CALM      30.01S
CAMBRIDGE      SUNNY     73  48  40 CALM      29.97R
SALISBURY      SUNNY     73  50  44 SE8       29.97S
OCEAN CITY     SUNNY     70  49  47 E5        29.98S
WALLOPS ISLAND SUNNY     71  53  52 E6        29.98S
ACCOMACK*      SUNNY     70  54  56 E5        29.97R
$$

NCZ012>017-030>032-172300-
EASTERN NORTH CAROLINA

CITY           SKY/WX    TMP DP  RH WIND       PRES   REMARKS
ELIZABETH CITY PTSUNNY   72  60  66 NE12      29.94
AHOSKIE*       PTSUNNY   71  62  71 N3        29.96R
EDENTON*       CLOUDY    72  64  74 NE6       29.94S
CURRITUCK*     PTSUNNY   73  56  56 NE8       29.95S
KILL DEVIL HLS MOSUNNY   73  61  65 NE7       29.92R
MANTEO         CLOUDY    72  61  68 NE14      29.93R
CAPE HATTERAS  MOSUNNY   72  65  78 NE8G20    29.89S
TARBORO*       MOCLDY    75  64  69 NE6       29.94S
GOLDSBORO      MOSUNNY   77  73  87 E2        29.90S
WASHINGTON     MOSUNNY   73  64  71 NE9       29.94R
GREENVILLE     CLOUDY    75  63  64 NE9       29.95S
NEW BERN       PTSUNNY   78  67  68 E7        29.92R
WILMINGTON     LGT RAIN  76  71  85 E7        29.87S
$$

VAZ048-172300-
ELSEWHERE

CITY           SKY/WX    TMP DP  RH WIND       PRES   REMARKS
HARRISBURG PA  MOSUNNY   68  54  60 CALM      29.97R
BALTIMORE      PTSUNNY   70  51  51 S3        29.97S
ANNAPOLIS      PTSUNNY   71  50  47 E5        29.98R
ANDREWS AFB    SUNNY     71  53  52 SE6       29.97S
WILMINGTON DE  CLOUDY    72  49  44 S6        29.98S
PHILADELPHIA   MOSUNNY   73  46  38 SW10      29.97S
WILDWOOD NJ*   SUNNY     70  45  40 S5        29.99S
ATLANTIC CITY  PTSUNNY   68  53  58 S8        29.98S
HENDERSON NC   SUNNY     73  62  67 NE5       29.95S
GREENSBORO     PTSUNNY   73  61  65 NE7       29.94S
ROCKY MOUNT    SUNNY     76  65  68 NE6       29.93S
FAYETTEVILLE   MOSUNNY   79  69  71 NE7       29.88F
CHARLOTTE      PTSUNNY   73  64  73 N3        29.94F
$$

VAZ100-172300-
MARINE

STATION/POSITION TIME  TEMP    WIND        PRES    WAVE   SWELL
                       AIR SEA DIR/SP/G            HT/PER HT/PER
                 (UTC) (F)     (DEG/KT/KT) (MB)    (FT/S) (FT/S)
44066 TX TWR #4  2200   67 75  350/  6/  8 1015.0R   4/12   3/12
CAPE MAY NJ      2200   69 76  180/  3/  4 1014.8R
LEWES DE         2200   70 72  120/  6/  8 1014.9R
15NM E FENWICK I 2200   70 73              1014.9R   4/12
OCEAN-CITY-INLET 2200   71 72  110/  4/  6 1014.6R
WACHAPREAGUE VA  2200   71 75   60/  7/  9 1014.8R
THOMAS POINT MD  2200   72 75   CALM  /  5 1016.0R
GOOSES REEF MD   2200   72      60/  4/  6 1015.3F
COVE POINT MD    2200   71      30/  4/  5 1014.7R
SOLOMONS ISLAND  2200      77                N/A
BISHOPS HEAD MD  2200   72 75  300/  4/  5 1014.3S
PINEY POINT MD   2200          150/  6/  8   N/A
POTOMAC MD       2200   73     140/  4/  4 1014.1F
CAMBRIDGE MD     2200   74 74  360/  2/  5 1014.5S
LEWISETTA VA     2200   72 76  110/  4/  5 1014.4R
RAPPAHANNOCK LGT 2200           80/  8/  9 1015.2R
STINGRAY PT      2200   73      60/  6/  8   N/A
YORK RVR RNG VA  2200   72      90/  8/  9 1014.0S
YORKTOWN VA      2200   72 77   80/  7/  9 1014.2R
JAMESTOWN VA     2200   71     110/  6/ 10   N/A
DOMINION TERM VA 2200   73      40/  3/  8 1014.4R
KIPTOPEKE VA     2200      79   70/  5/  8   N/A
CHES BAY BRIDGE  2200   71 76   40/ 12/ 14 1013.6F
CAPE HENRY VA    2200   71      40/ 13/ 15 1012.9S
CHESAPEAKE LGHT  2100   71      50/ 13/ 14 1014.5F
WILLOUBY STN VA  2200   71      50/  8/  9 1013.1R
S CRANEY ISL VA  2200           20/ 10/ 12 1013.9R
CAPE HENRY BUOY  2200      76                N/A     4/13   3/13
1ST LANDING BUOY 2200   72      50/ 12/ 14 1013.9S
CAPE CHARLES BUO 2200      75                N/A     4/13   3/13
OFFSHORE WE BUOY 2200      75                N/A     4/13   3/13
64NM E OF VA BCH 2200   73 78   30/ 14/ 16 1013.0F   5/13   5/13
DUCK PIER NC     2200   72 76   50/ 15/ 17 1013.0R
44100 DUCK FRF   2200      75                N/A     5/14   3/14
44056 DUCK FRF   2200                        N/A     5/14   3/14
OREGON INLET NC  2200   73 76   30/ 15/ 19 1012.8R
HATTERAS NC      2200   75 79   40/ 13/ 17 1012.6S
DIAMOND SHLS NC  2200   76      20/ 16/ 21 1011.2S   6/14   3/14
CAPE LOOKOUT NC  2100   75      40/ 12/ 13 1011.9R
$$


USA.gov is the U.S. government's official web portal to all federal, state and local government web resources and services.